Regional Weather Roundup
Issued by NWS

Home | Current Version | Previous Version | Text Only | Print | Product List | Glossary Off
Versions: 1 2 3 4 5 6 7 8 9 10 11 12 13 14 15 16 17 18 19 20 21 22 23 24 25 26 27 28 29 30 31 32 33 34 35 36 37 38 39 40 41 42 43 44 45 46 47 48 49 50

000
ASUS45 KBOI 200510
RWRID
WEATHER ROUNDUP FOR IDAHO
NATIONAL WEATHER SERVICE BOISE ID
1000 PM MST FRI DEC 19 2014

NOTE: "FAIR" INDICATES FEW OR NO CLOUDS BELOW 12000 FEET
WITH NO SIGNIFICANT WEATHER AND/OR OBSTRUCTIONS TO VISIBILITY

IDZ012-014-200600-
SOUTHWEST IDAHO


CITY           SKY/WX    TMP DP  RH WIND       PRES   REMARKS
BOISE          CLOUDY    40  35  83 SE9       30.09R WCI  34
CALDWELL       PTCLDY    37  30  75 NE5       30.10R WCI  34
MOUNTAIN HOME  CLOUDY    37  36  93 E7        30.09F WCI  32
$$

IDZ016-017-200600-
SOUTHCENTRAL IDAHO


CITY           SKY/WX    TMP DP  RH WIND       PRES   REMARKS
BURLEY         CLOUDY    38  34  85 S10       30.09R WCI  31
JEROME         CLOUDY    37  33  85 CALM      30.09S
TWIN FALLS     CLOUDY    41  34  76 S10       30.08S
$$

IDZ019>023-200600-
SOUTHEAST IDAHO


CITY           SKY/WX    TMP DP  RH WIND       PRES   REMARKS
IDAHO FALLS    LGT SNOW  33  32  96 S8        30.08S FOG     WCI  26
POCATELLO      CLOUDY    36  34  92 SW12      30.10S WCI  28
REXBURG        CLOUDY    33  32  96 SW13      30.07S WCI  24
$$

IDZ006-010-011-018-031-032-200600-
CENTRAL IDAHO MOUNTAINS


CITY           SKY/WX    TMP DP  RH WIND       PRES   REMARKS
MCCALL         FOG       31  30  96 CALM      30.03R VSB 3/4
HAILEY         FOG       30  30 100 CALM      30.08S VSB 1/2
STANLEY          N/A     28  25  88 W5        30.03S WCI  23
SALMON         PTCLDY    28  27  93 CALM      30.02R
CHALLIS        CLOUDY    27  25  92 NE3       30.02R
$$

IDZ002-004-006-007-026-200600-
NORTHERN IDAHO


CITY           SKY/WX    TMP DP  RH WIND       PRES   REMARKS
LEWISTON       FOG       37  37 100 CALM      30.06S VSB 1/4
LOWELL           N/A     38  37  97 CALM      30.12R
COEUR D`ALENE  CLOUDY    39  34  81 S8        29.99S WCI  34
MULLAN PASS    FOG       28  24  85 NW7       29.92R VSB 1   WCI  21
$$



USA.gov is the U.S. government's official web portal to all federal, state and local government web resources and services.